This is the latest recevied weather packets stored in our database for station/object W6MAF. If no packets are shown the sender has not sent any weather packets the latest 10 day(s).
| Time | Temp. | Humidity | Pressure | Rain* | Wind** | Luminosity | Snow |
|---|---|---|---|---|---|---|---|
| 1777932061 | 12.78° C | 36% | - | 0 mm | 11.62 m/s, 205° | - | - |
| 1777931762 | 12.78° C | 37% | - | 0 mm | 9.83 m/s, 159° | - | - |
| 1777931167 | 12.78° C | 37% | - | 0 mm | 6.71 m/s, 197° | - | - |
| 1777930271 | 12.78° C | 34% | - | 0 mm | 9.83 m/s, 203° | - | - |
| 1777929973 | 13.33° C | 34% | - | 0 mm | 4.92 m/s, 197° | - | - |
| 1777929676 | 12.78° C | 33% | - | 0 mm | 8.05 m/s, 188° | - | - |
| 1777929378 | 12.22° C | 34% | - | 0 mm | 9.83 m/s, 212° | - | - |
| 1777929080 | 12.22° C | 37% | - | 0 mm | 9.83 m/s, 198° | - | - |
| 1777928779 | 12.22° C | 35% | - | 0 mm | 10.73 m/s, 174° | - | - |
| 1777928482 | 12.22° C | 37% | - | 0 mm | 7.6 m/s, 173° | - | - |
| 1777928184 | 12.22° C | 38% | - | 0 mm | 8.49 m/s, 173° | - | - |
| 1777927933 | 12.22° C | 38% | - | 0 mm | 9.83 m/s, 159° | - | - |
| 1777927887 | 12.22° C | 38% | - | 0 mm | 9.83 m/s, 159° | - | - |
| 1777927589 | 12.22° C | 37% | - | 0 mm | 10.73 m/s, 174° | - | - |
| 1777927291 | 12.22° C | 38% | - | 0 mm | 8.94 m/s, 173° | - | - |
| 1777926990 | 12.22° C | 39% | - | 0 mm | 9.39 m/s, 167° | - | - |
| 1777926693 | 11.67° C | 39% | - | 0 mm | 7.6 m/s, 166° | - | - |
| 1777926459 | 11.67° C | 41% | - | 0 mm | 8.49 m/s, 176° | - | - |
| 1777926395 | 11.67° C | 41% | - | 0 mm | 8.49 m/s, 176° | - | - |
| 1777926097 | 11.67° C | 41% | - | 0 mm | 8.94 m/s, 193° | - | - |
| 1777925800 | 11.67° C | 42% | - | 0 mm | 8.05 m/s, 198° | - | - |
| 1777925540 | 11.67° C | 42% | - | 0 mm | 9.39 m/s, 203° | - | - |
| 1777925502 | 11.67° C | 42% | - | 0 mm | 9.39 m/s, 203° | - | - |
| 1777925202 | 11.67° C | 42% | - | 0 mm | 9.39 m/s, 160° | - | - |
| 1777924309 | 11.67° C | 42% | - | 0 mm | 10.73 m/s, 190° | - | - |
* Rain latest hour (hover to see other rain measurements)
** Current wind speed in m/s (hover to see current wind gust speed)